| time (UTC) | temp F | wind direction | speed MPH | gust MPH | rain 1hr in | rain 24hr in | rain mn in | humidity % | barometer mb |
| 20260902043037 | 60 | 0 | 0.0 | 0.0 | 0.00 | 0.38 | 0.00 | 98 | 1020.9 |
| 20260902041541 | 60 | 0 | 0.0 | 0.0 | 0.00 | 0.38 | 0.00 | 98 | 1020.6 |
| 20260902040050 | 60 | 0 | 0.0 | 0.0 | 0.00 | 0.38 | 0.00 | 98 | 1020.5 |
| 20260902034541 | 60 | 0 | 0.0 | 0.0 | 0.00 | 0.38 | 0.38 | 98 | 1020.5 |
| 20260902033036 | 60 | 0 | 0.0 | 0.0 | 0.00 | 0.38 | 0.38 | 98 | 1020.6 |
| 20260902031540 | 60 | 0 | 0.0 | 0.0 | 0.00 | 0.38 | 0.38 | 98 | 1020.6 |
| 20260902030040 | 60 | 0 | 0.0 | 0.0 | 0.00 | 0.38 | 0.38 | 97 | 1020.4 |
| 20260902024540 | 60 | 0 | 0.0 | 0.0 | 0.00 | 0.38 | 0.38 | 98 | 1020.2 |
| 20260902023038 | 60 | 0 | 0.0 | 0.0 | 0.00 | 0.38 | 0.38 | 98 | 1020.1 |
| 20260902021549 | 60 | 0 | 0.0 | 0.0 | 0.00 | 0.38 | 0.38 | 98 | 1020.3 |
| 20260902020040 | 60 | 0 | 0.0 | 0.0 | 0.00 | 0.38 | 0.38 | 98 | 1020.2 |
| 20260902014541 | 60 | 0 | 0.0 | 0.0 | 0.00 | 0.38 | 0.38 | 97 | 1020.2 |
| 20260902013040 | 60 | 0 | 0.0 | 0.0 | 0.00 | 0.38 | 0.38 | 97 | 1020.3 |
| 20260902011539 | 60 | 0 | 0.0 | 0.0 | 0.00 | 0.38 | 0.38 | 97 | 1020.4 |
| 20260902010043 | 61 | 0 | 0.0 | 0.0 | 0.00 | 0.38 | 0.38 | 96 | 1020.3 |
| 20260902004541 | 61 | 0 | 0.0 | 0.0 | 0.00 | 0.38 | 0.38 | 96 | 1020.1 |
| 20260902003042 | 61 | 0 | 0.0 | 0.0 | 0.00 | 0.38 | 0.38 | 97 | 1020.0 |
| 20260902001536 | 61 | 0 | 0.0 | 0.0 | 0.00 | 0.38 | 0.38 | 96 | 1019.6 |
| 20260902000040 | 61 | 0 | 0.0 | 0.0 | 0.00 | 0.38 | 0.38 | 97 | 1019.6 |
| 20260901234540 | 61 | 0 | 0.0 | 0.0 | 0.00 | 0.38 | 0.38 | 97 | 1019.5 |
| 20260901233043 | 61 | 0 | 0.0 | 0.0 | 0.00 | 0.38 | 0.38 | 97 | 1019.5 |
| 20260901231541 | 61 | 0 | 0.0 | 0.0 | 0.00 | 0.38 | 0.38 | 97 | 1019.5 |
| 20260901230039 | 61 | 0 | 0.0 | 0.0 | 0.00 | 0.38 | 0.38 | 97 | 1019.4 |
| 20260901224538 | 61 | 0 | 0.0 | 0.0 | 0.00 | 0.38 | 0.38 | 97 | 1019.5 |
| 20260901223046 | 62 | 0 | 0.0 | 0.0 | 0.00 | 0.38 | 0.38 | 96 | 1019.5 |
| 20260901221540 | 62 | 0 | 0.0 | 0.0 | 0.00 | 0.38 | 0.38 | 96 | 1019.4 |
| 20260901220041 | 62 | 0 | 0.0 | 0.0 | 0.00 | 0.38 | 0.38 | 95 | 1019.3 |
| 20260901214538 | 63 | 0 | 0.0 | 0.0 | 0.00 | 0.38 | 0.38 | 94 | 1019.1 |
| 20260901213102 | 63 | 0 | 0.0 | 0.0 | 0.00 | 0.38 | 0.38 | 94 | 1019.1 |
| 20260901211540 | 63 | 0 | 0.0 | 0.0 | 0.00 | 0.38 | 0.38 | 93 | 1019.1 |
| 20260901210042 | 64 | 0 | 0.0 | 0.0 | 0.00 | 0.38 | 0.38 | 92 | 1019.1 |
| 20260901204547 | 64 | 0 | 0.0 | 0.0 | 0.00 | 0.38 | 0.38 | 93 | 1018.8 |
| 20260901203040 | 63 | 0 | 0.0 | 0.0 | 0.00 | 0.38 | 0.38 | 92 | 1018.6 |
| 20260901201539 | 63 | 0 | 0.0 | 0.0 | 0.00 | 0.38 | 0.38 | 92 | 1018.7 |
| 20260901200042 | 63 | 0 | 0.0 | 0.0 | 0.00 | 0.38 | 0.38 | 94 | 1018.7 |
| 20260901194541 | 63 | 0 | 0.0 | 0.0 | 0.00 | 0.38 | 0.38 | 94 | 1018.6 |
| 20260901193042 | 63 | 0 | 0.0 | 0.0 | 0.00 | 0.38 | 0.38 | 94 | 1018.7 |
| 20260901191541 | 62 | 0 | 0.0 | 0.0 | 0.00 | 0.38 | 0.38 | 96 | 1018.7 |
| 20260901190039 | 62 | 0 | 0.0 | 0.0 | 0.00 | 0.38 | 0.38 | 97 | 1018.9 |
| 20260901184545 | 62 | 0 | 0.0 | 0.0 | 0.00 | 0.38 | 0.38 | 97 | 1019.0 |
| 20260901183041 | 62 | 0 | 0.0 | 0.0 | 0.00 | 0.38 | 0.38 | 98 | 1018.9 |
| 20260901181538 | 61 | 0 | 0.0 | 0.0 | 0.00 | 0.38 | 0.38 | 97 | 1018.7 |
| 20260901180039 | 61 | 0 | 0.0 | 0.0 | 0.00 | 0.38 | 0.38 | 97 | 1018.8 |
| 20260901174538 | 61 | 0 | 0.0 | 0.0 | 0.00 | 0.38 | 0.38 | 97 | 1018.7 |
| 20260901173042 | 60 | 0 | 0.0 | 0.0 | 0.00 | 0.38 | 0.38 | 98 | 1018.5 |
| 20260901171546 | 60 | 0 | 0.0 | 0.0 | 0.01 | 0.38 | 0.38 | 97 | 1018.6 |
| 20260901170043 | 59 | 0 | 0.0 | 0.0 | 0.01 | 0.38 | 0.38 | 98 | 1018.5 |
| 20260901164545 | 59 | 0 | 0.0 | 0.0 | 0.01 | 0.38 | 0.38 | 97 | 1018.0 |
| 20260901163039 | 58 | 0 | 0.0 | 0.0 | 0.01 | 0.38 | 0.38 | 97 | 1018.2 |
| 20260901161539 | 58 | 0 | 0.0 | 0.0 | 0.00 | 0.37 | 0.37 | 97 | 1018.8 |
| 20260901160041 | 59 | 0 | 0.0 | 0.0 | 0.00 | 0.37 | 0.37 | 96 | 1018.9 |
| 20260901154542 | 59 | 0 | 0.0 | 0.0 | 0.00 | 0.37 | 0.37 | 96 | 1018.9 |
| 20260901153051 | 60 | 0 | 0.0 | 0.0 | 0.00 | 0.37 | 0.37 | 98 | 1019.1 |
| 20260901151542 | 60 | 0 | 0.0 | 0.0 | 0.00 | 0.37 | 0.37 | 97 | 1019.0 |
| 20260901150039 | 60 | 0 | 0.0 | 0.0 | 0.00 | 0.37 | 0.37 | 96 | 1018.6 |
| 20260901144541 | 60 | 0 | 0.0 | 0.0 | 0.00 | 0.37 | 0.37 | 98 | 1018.4 |
| 20260901143042 | 60 | 0 | 0.0 | 0.0 | 0.01 | 0.37 | 0.37 | 98 | 1018.7 |
| 20260901141540 | 60 | 0 | 0.0 | 0.0 | 0.01 | 0.37 | 0.37 | 98 | 1018.7 |
| 20260901140039 | 60 | 0 | 0.0 | 0.0 | 0.04 | 0.37 | 0.37 | 98 | 1018.5 |
| 20260901134550 | 60 | 0 | 0.0 | 0.0 | 0.05 | 0.37 | 0.37 | 98 | 1018.6 |
| 20260901133040 | 59 | 0 | 0.0 | 0.0 | 0.07 | 0.36 | 0.36 | 98 | 1018.6 |
| 20260901131537 | 59 | 0 | 0.0 | 0.0 | 0.13 | 0.36 | 0.36 | 98 | 1018.7 |
| 20260901130038 | 59 | 0 | 0.0 | 0.0 | 0.16 | 0.33 | 0.33 | 98 | 1018.6 |
| 20260901124545 | 59 | 0 | 0.0 | 0.0 | 0.18 | 0.32 | 0.32 | 98 | 1018.9 |
| 20260901123041 | 59 | 0 | 0.0 | 0.0 | 0.17 | 0.28 | 0.28 | 98 | 1019.0 |
| 20260901121543 | 60 | 0 | 0.0 | 0.0 | 0.14 | 0.22 | 0.22 | 97 | 1019.3 |
| 20260901120041 | 60 | 0 | 0.0 | 0.0 | 0.14 | 0.17 | 0.17 | 98 | 1019.3 |
| 20260901114552 | 60 | 0 | 0.0 | 0.0 | 0.14 | 0.14 | 0.14 | 97 | 1019.4 |
| 20260901113040 | 60 | 0 | 0.0 | 0.0 | 0.11 | 0.11 | 0.11 | 97 | 1019.2 |
| 20260901111547 | 60 | 0 | 0.0 | 0.0 | 0.08 | 0.08 | 0.08 | 97 | 1019.1 |
| 20260901110044 | 60 | 0 | 0.0 | 0.0 | 0.03 | 0.03 | 0.03 | 96 | 1018.9 |
| 20260901104542 | 60 | 0 | 0.0 | 0.0 | 0.00 | 0.00 | 0.00 | 96 | 1018.5 |
| 20260901103042 | 60 | 0 | 0.0 | 0.0 | 0.00 | 0.00 | 0.00 | 96 | 1018.6 |
| 20260901101544 | 60 | 0 | 0.0 | 0.0 | 0.00 | 0.00 | 0.00 | 96 | 1018.3 |
| 20260901100045 | 60 | 0 | 0.0 | 0.0 | 0.00 | 0.00 | 0.00 | 96 | 1018.2 |
| 20260901094536 | 60 | 0 | 0.0 | 0.0 | 0.00 | 0.00 | 0.00 | 96 | 1018.2 |
| 20260901093043 | 60 | 0 | 0.0 | 0.0 | 0.00 | 0.00 | 0.00 | 95 | 1018.4 |
| 20260901091549 | 60 | 0 | 0.0 | 0.0 | 0.00 | 0.00 | 0.00 | 96 | 1018.1 |
| 20260901090039 | 60 | 0 | 0.0 | 0.0 | 0.00 | 0.00 | 0.00 | 95 | 1018.3 |
| 20260901084536 | 60 | 0 | 0.0 | 0.0 | 0.00 | 0.00 | 0.00 | 95 | 1018.2 |
| 20260901083036 | 60 | 0 | 0.0 | 0.0 | 0.00 | 0.00 | 0.00 | 96 | 1018.4 |
| 20260901081539 | 60 | 0 | 0.0 | 0.0 | 0.00 | 0.00 | 0.00 | 96 | 1018.4 |
| 20260901080036 | 60 | 0 | 0.0 | 0.0 | 0.00 | 0.00 | 0.00 | 96 | 1018.5 |
| 20260901074536 | 59 | 0 | 0.0 | 0.0 | 0.00 | 0.00 | 0.00 | 95 | 1018.4 |
| 20260901073039 | 60 | 0 | 0.0 | 0.0 | 0.00 | 0.00 | 0.00 | 96 | 1018.5 |
| 20260901071536 | 59 | 0 | 0.0 | 0.0 | 0.00 | 0.00 | 0.00 | 95 | 1018.6 |
| 20260901070040 | 59 | 0 | 0.0 | 0.0 | 0.00 | 0.00 | 0.00 | 95 | 1018.6 |
| 20260901064541 | 59 | 0 | 0.0 | 0.0 | 0.00 | 0.00 | 0.00 | 96 | 1018.8 |
| 20260901063043 | 59 | 0 | 0.0 | 0.0 | 0.00 | 0.00 | 0.00 | 97 | 1018.7 |
| 20260901061538 | 59 | 0 | 0.0 | 0.0 | 0.00 | 0.00 | 0.00 | 97 | 1018.9 |
| 20260901060040 | 59 | 0 | 0.0 | 0.0 | 0.00 | 0.00 | 0.00 | 97 | 1019.1 |
| 20260901054537 | 58 | 0 | 0.0 | 0.0 | 0.00 | 0.00 | 0.00 | 97 | 1019.1 |
| 20260901053035 | 58 | 0 | 0.0 | 0.0 | 0.00 | 0.00 | 0.00 | 96 | 1019.2 |
| 20260901051536 | 58 | 0 | 0.0 | 0.0 | 0.00 | 0.00 | 0.00 | 96 | 1019.3 |
| 20260901050036 | 58 | 0 | 0.0 | 0.0 | 0.00 | 0.00 | 0.00 | 95 | 1019.4 |
| 20260901044537 | 59 | 0 | 0.0 | 0.0 | 0.00 | 0.00 | 0.00 | 96 | 1019.4 |